Location: Auckland
(36.8670°S, 174.7670°E)
Time: 09:25:39
(UTC+12:00)

SR - Visible Passes

Search period start: 20 July 2019 00:00
Search period end: 30 July 2019 00:00
Orbit: 580 x 876 km, 66.7° (Epoch: 19 July)

Date Brightness Start Highest point End Pass type
(mag) Time Alt. Az. Time Alt. Az. Time Alt. Az.
20 Jul ? 18:31:29 10° SSW 18:36:19 64° WNW 18:40:43 10° NNE visible
21 Jul ? 19:26:01 10° WSW 19:28:03 13° WNW 19:30:02 10° NW visible
22 Jul ? 18:34:43 10° SW 18:38:51 29° WNW 18:42:42 10° N visible
24 Jul ? 06:31:12 10° NE 06:34:53 17° ENE 06:38:32 10° ESE visible
24 Jul ? 18:38:54 10° WSW 18:41:13 14° WNW 18:43:28 10° NW visible
26 Jul ? 06:32:13 10° N 06:37:22 32° ENE 06:42:28 10° SE visible
27 Jul ? 05:44:37 10° NE 05:48:04 16° ENE 05:51:29 10° ESE visible
28 Jul ? 06:34:13 10° NNW 06:40:01 61° ENE 06:45:40 10° SE visible
29 Jul ? 05:45:29 10° NNE 05:50:33 31° ENE 05:55:32 10° SE visible
